TianYi 6
1 43158U 18008D 18350.77050946 .00000648 00000-0 43759-4 0 9993
2 43158 97.5067 61.6130 0012947 227.6592 282.4333 15.09988871 50006
S-Net G
1 43186U 18014G 18350.82795129 .00000713 00000-0 67722-4 0 9995
2 43186 97.7177 256.8474 0009433 259.7060 100.3098 14.96551822 47630
S-Net H
1 43187U 18014H 18350.82777611 .00000705 00000-0 67088-4 0 9998
2 43187 97.7174 256.8401 0009432 259.4932 100.5227 14.96551873 47634
S-Net J
1 43188U 18014J 18350.89446829 .00000702 00000-0 66754-4 0 9996
2 43188 97.7177 256.9164 0009431 259.3002 100.7158 14.96552900 47649
S-Net K
1 43189U 18014K 18350.89471355 .00000702 00000-0 66810-4 0 9992
2 43189 97.7175 256.9044 0009418 259.2188 100.7973 14.96551683 46195
FMN 1
1 43192U 18015A 18350.21167684 .00002122 00000-0 91611-4 0 9995
2 43192 97.3778 115.7044 0015488 219.5089 140.5020 15.23518501 48223
Shaonian Xing
1 43199U 18015H 18350.55882644 .00001500 00000-0 64260-4 0 9998
2 43199 97.3564 115.5324 0016178 230.1062 129.8750 15.24217683 48317
1KUNS-PF
1 43466U 98067NP 18350.76411959 .00008513 00000-0 10948-3 0 9994
2 43466 51.6382 183.4479 0001384 134.1597 225.9510 15.59985366 34156
UBAKUSAT
1 43467U 98067NQ 18350.77013528 .00005749 00000-0 79599-4 0 9992
2 43467 51.6376 184.2368 0003218 103.1771 256.9581 15.58736852 34159
Irazu
1 43468U 98067NR 18349.80704622 .00012484 00000-0 15210-3 0 9990
2 43468 51.6377 187.5550 0001387 136.8126 223.2977 15.60918091134003
EnduroSat One
1 43551U 98067NZ 18350.48495090 .00007510 00000-0 10511-3 0 9998
2 43551 51.6377 187.5695 0006939 169.5802 190.5336 15.57906063 24317
EQUISat
1 43552U 98067PA 18350.75885701 .00006331 00000-0 90987-4 0 9997
2 43552 51.6378 186.4007 0007140 170.4565 189.6564 15.57503696 24313
UiTMSat 1
1 43589U 98067PD 18350.48984523 .00006834 00000-0 98850-4 0 9994
2 43589 51.6375 188.3495 0006445 176.7299 183.3736 15.57181850 20000
Maya 1
1 43590U 98067PE 18350.55177798 .00006795 00000-0 98221-4 0 9990
2 43590 51.6375 188.0137 0006512 177.7216 182.3807 15.57208449 19940
Bhutan 1
1 43591U 98067PF 18350.80518248 .00006454 00000-0 93482-4 0 9994
2 43591 51.6377 186.7067 0006616 179.7097 180.3900 15.57254588 19985
SiriusSat 1
1 43595U 98067PG 18350.52265991 .00005949 00000-0 88336-4 0 9991
2 43595 51.6374 188.5648 0004515 135.1373 224.9985 15.56746291 19119
SiriusSat 2
1 43596U 98067PH 18350.53420986 .00005948 00000-0 88809-4 0 9994
2 43596 51.6385 188.6540 0005151 138.0057 222.1331 15.56590705 19114
Tanusha-3
1 43597U 98067PJ 18350.51628516 .00007545 00000-0 10884-3 0 9994
2 43597 51.6364 188.5099 0004668 149.5502 210.5762 15.57079535 19117
SurfSat
1 43614U 18070B 18350.09511816 .00002359 00000-0 65983-4 0 9996
2 43614 93.0363 287.3476 0014157 303.5931 56.3970 15.36661399 14052
CP-7 DAVE
1 43615U 18070C 18349.89964796 .00002108 00000-0 59014-4 0 9992
2 43615 093.0363 287.2676 0014215 304.1400 055.8503 15.36646112014026
ELFIN-B
1 43616U 18070D 18350.08784680 .00003161 00000-0 87715-4 0 9997
2 43616 93.0333 287.3076 0015429 307.3174 52.6673 15.36869700 14056
ELFIN-A
1 43617U 18070E 18349.89060611 .00003335 00000-0 92466-4 0 9998
2 43617 093.0384 287.2981 0014370 304.2274 055.7617 15.36905333014020
STARS-Me Mother
1 43640U 98067PQ 18350.53653076 .00004098 00000-0 65789-4 0 9999
2 43640 51.6381 189.4119 0006533 127.6658 232.4927 15.55527193 11035
CubeBel 1
1 43666U 18083E 18350.77091005 .00000850 00000-0 46108-4 0 9997
2 43666 97.5354 11.3855 0016897 105.3806 14.9206 15.17187050 7393
Changshagaoxin
1 43669U 18083H 18350.83789187 .00000716 00000-0 40219-4 0 9990
2 43669 97.5216 11.3112 0012687 97.9401 262.3272 15.16465603 7360
Ten-Koh
1 43677U 18084G 18350.56633363 -.00000284 00000-0 -23491-4 0 9999
2 43677 97.8379 100.7034 0016561 165.2521 194.9175 14.90106641 7193
Diwata-2
1 43678U 18084H 18350.85607282 -.00000315 00000-0 -25784-4 0 9995
2 43678 97.8379 101.1050 0009693 183.3454 176.7702 14.91509343 7248
IRVINE 01
1 43693U 18088D 18349.80568806 .00002231 00000-0 99607-4 0 9999
2 43693 85.0368 80.1315 0020297 147.1429 213.1079 15.20570503 5267
OBJECT A
1 43758U 18099A 18350.86770815 .00000444 00000-0 45604-4 0 9998
2 43758 97.7671 59.9015 0015051 215.8940 144.1270 14.95259713 1967
OBJECT B
1 43759U 18099B 18350.86956622 .00000359 00000-0 38040-4 0 9992
2 43759 97.7676 59.9029 0013701 208.3953 151.6522 14.95043514 1951
OBJECT C
1 43760U 18099C 18350.87000347 .00000716 00000-0 70694-4 0 9997
2 43760 97.7666 59.8962 0013461 213.9096 146.1265 14.94998509 1966
OBJECT D
1 43761U 18099D 18350.87036834 .00000349 00000-0 37218-4 0 9995
2 43761 97.7701 59.9057 0013714 215.0687 144.9631 14.94950420 1955
OBJECT E
1 43762U 18099E 18350.73297194 .00000236 00000-0 26631-4 0 9991
2 43762 97.7680 59.7704 0012274 215.9023 144.1374 14.95358621 1943
OBJECT F
1 43763U 18099F 18350.86589911 -.00000245 00000-0 -16888-4 0 9992
2 43763 97.7655 59.9021 0012240 216.1900 143.8488 14.95459416 1968
OBJECT G
1 43764U 18099G 18350.86040035 .00000235 00000-0 26095-4 0 9990
2 43764 97.7660 59.9027 0015372 222.1009 137.9032 14.96098284 1958
OBJECT J
1 43766U 18099J 18350.87501416 .00000570 00000-0 58210-4 0 9994
2 43766 97.7663 59.8921 0010840 210.5569 149.5020 14.94415697 1968
OBJECT K
1 43767U 18099K 18350.87438294 .00000395 00000-0 41943-4 0 9998
2 43767 97.7665 59.8906 0011149 210.0503 150.0078 14.94488775 1967
UNKNOWN SAT 2
1 43768U 18099L 18350.74106809 .00000484 00000-0 50201-4 0 9995
2 43768 97.7664 59.7595 0010868 210.9228 149.1353 14.94418000 1666
AO-95
1 43769U 18099M 18350.73915633 .00000488 00000-0 50294-4 0 9994
2 43769 97.7625 59.7532 0013528 220.3699 139.6519 14.94643650 1948
OBJECT P
1 43771U 18099P 18350.67219235 .00000565 00000-0 57427-4 0 9996
2 43771 97.7677 59.6954 0013822 222.7580 137.2566 14.94644622 1921
OBJECT Q
1 43772U 18099Q 18350.87255721 .00000603 00000-0 60849-4 0 9994
2 43772 97.7725 59.9039 0013741 208.5943 151.4525 14.94701533 1959
OBJECT R
1 43773U 18099R 18350.87247672 .00000464 00000-0 47987-4 0 9994
2 43773 97.7627 59.8904 0013007 208.4901 151.5610 14.94709204 1958
OBJECT S
1 43774U 18099S 18350.73809351 .00000603 00000-0 60715-4 0 9997
2 43774 97.7704 59.7637 0012344 212.1896 147.8572 14.94768987 1931
PWSat 2
1 43775U 18099T 18350.73744698 .00000410 00000-0 42929-4 0 9993
2 43775 97.7688 59.7710 0013979 213.7495 146.2837 14.94840915 1920
OBJECT U
1 43776U 18099U 18350.67047832 .00000360 00000-0 38373-4 0 9995
2 43776 97.7687 59.7047 0013942 213.9008 146.1322 14.94843786 1911
OBJECT V
1 43777U 18099V 18350.87231002 -.00000019 00000-0 35789-5 0 9993
2 43777 97.7635 59.8937 0013357 218.7086 141.3077 14.94724835 1954
OBJECT W
1 43778U 18099W 18350.73832127 .00000503 00000-0 51605-4 0 9995
2 43778 97.7586 59.7477 0013300 218.8518 141.1747 14.94739786 1512
OBJECT X
1 43779U 18099X 18350.73742958 .00000386 00000-0 40741-4 0 9996
2 43779 97.7687 59.7710 0013966 213.7017 146.3317 14.94842596 1920
MOVE-II
1 43780U 18099Y 18350.73734746 .00000633 00000-0 63324-4 0 9991
2 43780 97.7659 59.7587 0012916 220.4287 139.5975 14.94855846 1927
OBJECT Z
1 43781U 18099Z 18350.73707463 .00000577 00000-0 58211-4 0 9994
2 43781 97.7606 59.7535 0013117 212.3593 147.6825 14.94887778 1931
SNUSat 2
1 43782U 18099AA 18350.73667016 .00000471 00000-0 48408-4 0 9994
2 43782 97.7674 59.7650 0012225 208.8863 151.1682 14.94932911 1935
